#timestamp,LO_Frequency,Hit,StdDev 
1599109215.4,286046998.9,N
1599109235.2,286046996.9,N
1599109255.0,286046999.9,N
1599109255.9,286046999.9,N
1599109275.8,286047000.3,N
1599109295.6,286047002.6,N
1599109315.4,286047003.7,N
1599109335.3,286047003.2,N
1599109355.1,286047003.9,N
1599109375.9,286047004.1,N
1599109395.7,286047003.7,N
1599109415.5,286047001.9,N
1599109435.4,286047001.4,N
1599109455.2,286047003.2,N
1599109475.0,286047007.6,N
1599109475.9,286047007.6,N
1599109495.8,286047005.1,N
1599109515.6,286047005.6,N
1599109535.5,286047002.9,N
1599109555.3,286047003.5,N
1599109575.1,286047003.7,N
1599109595.9,286047001.7,N
1599109615.7,286047004.2,N
1599109635.5,286047004.0,N
1599109655.4,286047002.4,N
1599109675.2,286047004.2,N
1599109695.1,286047000.3,N
1599109696.0,286047000.3,N
1599109715.8,286047000.0,N
1599109735.6,286047011.9,Y
1599109755.5,286047000.8,P
1599109775.3,286046998.3,N
1599109795.2,286047002.3,N
1599109815.9,286047002.2,N
1599109835.7,286047004.2,N
1599109855.6,286047004.2,N
1599109875.4,286047002.0,N
1599109895.2,286047005.6,Y
1599109915.1,286047003.0,P
1599109916.0,286047003.0,P
1599109935.8,286047005.1,P
1599109955.7,286047002.9,N
1599109975.5,286047001.3,N
1599109995.3,286047002.3,N
1599110015.2,286047003.6,Y
1599110035.0,286047000.0,P
1599110035.9,286047000.0,N
1599110055.8,286047000.7,N
1599110075.6,286046998.1,N
1599110095.4,286046998.8,N
1599110115.3,286046997.8,N
1599110135.1,286046999.9,N
1599110155.9,286047000.3,N
1599110175.7,286046998.5,N
1599110195.5,286047000.8,N
1599110215.4,286046998.1,N
1599110235.2,286047002.7,N
1599110255.0,286046998.4,N
1599110255.9,286046998.4,N
1599110275.8,286046999.2,N
1599110295.6,286046999.1,N
1599110315.5,286047002.4,N
1599110335.3,286047000.4,N
1599110355.1,286047001.0,N
1599110375.9,286047002.2,N
1599110395.7,286047002.5,N
1599110415.6,286047002.6,N
1599110435.4,286047001.5,N
1599110455.2,286047002.2,N
1599110475.1,286047001.7,N
1599110476.0,286047001.7,N
1599110495.8,286047004.2,N
1599110515.6,286047001.7,N
1599110535.5,286047002.8,N
1599110555.3,286047004.3,N
1599110575.2,286047003.1,N
1599110595.9,286047004.4,N
1599110615.7,286047004.3,N
1599110635.6,286047002.1,N
1599110655.4,286047003.2,N
1599110675.2,286047004.8,N
1599110695.1,286047004.3,N
1599110696.0,286047004.3,N
1599110715.8,286047001.3,N
1599110735.7,286047001.7,N
1599110755.5,286047003.1,N
1599110775.3,286047003.8,N
1599110795.2,286047007.6,Y
1599110815.0,286047005.7,P
1599110815.9,286047005.7,P
1599110835.8,286047004.6,N
1599110855.6,286047003.7,N
1599110875.4,286047001.6,N
1599110895.3,286047002.2,N
1599110915.1,286047001.6,N
1599110935.8,286047003.3,N
1599110955.7,286047001.3,N
1599110975.5,286047000.0,N
1599110995.3,286047000.7,N
1599111015.2,286046998.4,N
1599111035.0,286047000.4,N
1599111035.9,286047000.4,N
1599111055.8,286047002.5,N
1599111075.6,286046999.7,N
1599111095.4,286047002.1,N
1599111115.3,286047002.7,N
1599111135.1,286047002.3,N
1599111155.9,286047000.1,N
1599111175.7,286047002.2,N
1599111195.5,286047002.0,N
1599111215.4,286047001.7,N
1599111235.2,286047002.3,N
1599111255.0,286047004.3,N
1599111255.9,286047004.3,N
1599111275.8,286047002.5,N
1599111295.6,286047003.0,N
1599111315.5,286047003.0,N
1599111335.3,286047002.3,N
1599111355.1,286047002.3,N
1599111375.9,286047002.6,N
1599111395.7,286047000.4,N
1599111415.5,286047002.0,N
1599111435.4,286046999.8,N
1599111455.2,286047002.6,N
1599111475.1,286047001.9,N
1599111476.0,286047001.9,N
1599111495.8,286047003.5,N
1599111515.6,286047001.8,N
1599111535.5,286047003.0,N
1599111555.3,286047001.9,N
1599111575.2,286046999.8,N
1599111595.9,286047002.4,N
1599111615.7,286047000.1,N
1599111635.6,286047000.3,N
1599111655.4,286047000.6,N
1599111675.2,286047000.3,N
1599111695.1,286047000.8,N
1599111696.0,286047000.8,N
1599111715.8,286046998.8,N
1599111735.7,286046998.6,N
1599111755.5,286046999.7,N
1599111775.3,286047000.8,N
1599111795.2,286047000.2,N
1599111815.0,286047000.0,N
1599111815.9,286047000.0,N
1599111835.8,286047004.4,Y
1599111855.6,286047003.6,P
1599111875.4,286047002.3,N
1599111895.3,286047002.2,N
1599111915.1,286047002.3,N
1599111935.8,286047004.0,Y
1599111955.7,286047002.0,P
1599111975.5,286047000.7,P
1599111995.4,286046999.1,N
1599112015.2,286046996.6,N
1599112035.0,286046996.5,N
1599112035.9,286046996.5,N
1599112055.8,286046999.2,N
1599112075.6,286046997.2,N
1599112095.5,286046999.1,N
1599112115.3,286046998.3,N
1599112135.1,286046997.0,N
1599112155.9,286046997.6,N
1599112175.7,286046995.6,N
1599112195.5,286046995.6,N
1599112215.4,286046995.6,N
1599112235.2,286046996.7,N
1599112255.1,286046995.6,N
1599112256.0,286046995.6,N
1599112275.8,286046995.3,N
1599112295.6,286046998.8,N
1599112315.5,286046996.6,N
1599112335.3,286046995.2,N
1599112355.2,286046997.3,N
1599112375.9,286046997.0,N
1599112395.7,286046997.6,N
1599112415.6,286046997.0,N
1599112435.4,286046999.4,N
1599112455.2,286046995.5,N
1599112475.1,286046995.3,N
1599112476.0,286046995.3,N
1599112495.8,286046995.5,N
1599112515.7,286046995.0,Y
1599112535.5,286047000.4,P
1599112555.3,286047001.1,N
1599112575.2,286047000.7,N
1599112595.9,286047002.4,N
1599112645.8,286047000.0,E
1599112655.7,286047000.2,N
1599112675.5,286047002.4,P
1599112695.4,286047002.7,N
1599112715.2,286047002.8,N
1599112735.0,286047001.5,N
1599112735.9,286047001.5,N
1599112755.8,286047001.6,N
1599112775.6,286046999.9,N
1599112795.5,286047002.3,N
